Terminal Aerodrome Forecast
Issued by NWS

Home | Current Version | Previous Version | Text Only | Print | Product List | Glossary On
Versions: 1 2 3 4 5 6 7 8 9 10 11 12 13 14 15 16 17 18 19 20 21 22 23 24 25 26 27 28 29 30 31 32 33
000
FTAK31 PAFA 280528
TAFAMC
TAF
PAMC 280528Z 2806/0106 13004KT P6SM OVC012
     FM280600 19003KT P6SM SCT015 BKN050
     FM281400 21008KT 5SM -SHSN OVC020
     FM281800 21013KT 3SM -SN BR OVC010=

USA.gov is the U.S. government's official web portal to all federal, state and local government web resources and services.